Date String (YYYY-MM-DD hh:mm:ss) UTC,Instrument flags,Ambient pressure (hPa),Sample flow (lpm),Bypass flow (lpm),Sample temperature (°C),Ambient temperature (°C),ASC tube jacket temperature (°C),LED temperature (°C),Box temperature (°C),Sample RH (%),Span deviation,Mass concentration (μg/m³),Mass concentration (μg/m³),Mass concentration (μg/m³)
DateTimeUTC,F1_M11,P_M11,Q1_M11,Q2_M11,T1_M11,T2_M11,T3_M11,T4_M11,T5_M11,U1_M11,ZSPAN_M11,X0_M11,X2_M11,X1_M11
2022-01-31 18:00:00,,0815.8,4.99,0.00,22.4,21.7,00.0,31.5,24.1,02.9,0000.0,0001.66,0000.42,0000.25
2022-01-31 18:01:00,,0815.8,5.00,0.00,22.4,21.7,00.0,31.5,24.1,03.3,0000.0,0003.31,0000.47,0000.25
2022-01-31 18:02:00,,0815.8,5.02,0.00,22.4,21.7,00.0,31.5,24.2,03.2,0000.0,0003.77,0000.53,0000.26
2022-01-31 18:03:00,,0815.7,4.99,0.00,22.4,21.7,00.0,31.5,24.2,03.0,0000.0,0003.86,0000.56,0000.27
2022-01-31 18:04:00,,0815.7,4.99,0.00,22.4,21.7,00.0,31.5,24.2,03.2,0000.0,0003.92,0000.54,0000.26
2022-01-31 18:05:00,,0815.6,5.01,0.00,22.5,21.7,00.0,31.5,24.2,03.0,0000.0,0004.30,0000.55,0000.27
2022-01-31 18:06:00,,0815.5,5.00,0.00,22.5,21.7,00.0,31.5,24.2,03.0,0000.0,0004.34,0000.56,0000.28
2022-01-31 18:07:00,,0815.9,5.01,0.00,22.5,21.7,00.0,31.5,24.2,02.9,0000.0,0004.38,0000.58,0000.28
2022-01-31 18:08:00,,0815.8,4.98,0.00,22.5,21.7,00.0,31.5,24.1,03.5,0000.0,0004.37,0000.58,0000.27
2022-01-31 18:09:00,,0815.6,5.00,0.00,22.4,21.7,00.0,31.5,24.2,03.4,0000.0,0004.39,0000.59,0000.27
2022-01-31 18:10:00,,0815.2,5.02,0.00,22.5,21.7,00.0,31.5,24.2,03.4,0000.0,0004.59,0000.64,0000.27
2022-01-31 18:11:00,,0815.2,4.99,0.00,22.5,21.7,00.0,31.5,24.2,02.9,0000.0,0004.83,0000.69,0000.27
2022-01-31 18:12:00,,0815.3,5.01,0.00,22.5,21.7,00.0,31.5,24.2,03.3,0000.0,0003.14,0000.65,0000.28
2022-01-31 18:13:00,,0815.3,4.99,0.00,22.5,21.7,00.0,31.5,24.2,03.2,0000.0,0002.16,0000.62,0000.28
2022-01-31 18:14:00,,0815.2,5.00,0.00,22.5,21.7,00.0,31.5,24.2,03.6,0000.0,0003.84,0000.58,0000.28
2022-01-31 18:15:00,,0815.1,5.01,0.00,22.5,21.7,00.0,31.5,24.2,03.1,0000.0,0004.29,0000.61,0000.27
2022-01-31 18:16:00,,0815.2,4.99,0.00,22.5,21.7,00.0,31.5,24.2,03.4,0000.0,0003.72,0000.60,0000.27
2022-01-31 18:17:00,,0815.1,5.00,0.00,22.5,21.7,00.0,31.5,24.2,03.6,0000.0,0003.69,0000.58,0000.26
2022-01-31 18:18:00,,0815.2,5.01,0.00,22.5,21.7,00.0,31.5,24.2,03.1,0000.0,0003.74,0000.57,0000.26
2022-01-31 18:19:00,,0814.9,4.99,0.00,22.6,21.8,00.0,31.5,24.3,03.3,0000.0,0003.74,0000.55,0000.26
2022-01-31 18:20:00,,0814.8,5.01,0.00,22.6,21.8,00.0,31.5,24.4,03.3,0000.0,0003.84,0000.57,0000.26
2022-01-31 18:21:00,,0814.9,5.00,0.00,22.6,21.9,00.0,31.5,24.4,03.2,0000.0,0003.73,0000.56,0000.26
2022-01-31 18:22:00,,0814.8,4.99,0.00,22.6,21.9,00.0,31.5,24.4,02.9,0000.0,0003.40,0000.47,0000.25
2022-01-31 18:23:00,,0814.8,5.01,0.00,22.6,21.9,00.0,31.5,24.4,03.5,0000.0,0003.60,0000.47,0000.25
2022-01-31 18:24:00,,0814.8,4.99,0.00,22.6,21.9,00.0,31.5,24.4,03.7,0000.0,0003.66,0000.49,0000.25
2022-01-31 18:25:00,,0814.8,5.01,0.00,22.6,21.9,00.0,31.5,24.4,03.3,0000.0,0001.75,0000.48,0000.26
2022-01-31 18:26:00,,0814.8,5.00,0.00,22.6,22.0,00.0,31.5,24.4,03.1,0000.0,0001.50,0000.47,0000.26
2022-01-31 18:27:00,,0814.8,5.02,0.00,22.6,22.0,00.0,31.5,24.4,03.3,0000.0,0001.60,0000.50,0000.25
2022-01-31 18:28:00,,0815.0,4.99,0.00,22.6,22.0,00.0,31.5,24.4,03.6,0000.0,0001.58,0000.50,0000.25
2022-01-31 18:29:00,,0814.9,5.01,0.00,22.6,22.0,00.0,31.6,24.4,03.6,0000.0,0001.93,0000.52,0000.25
2022-01-31 18:30:00,,0815.0,5.00,0.00,22.6,22.1,00.0,31.6,24.5,03.8,0000.0,0002.56,0000.56,0000.26
2022-01-31 18:31:00,,0814.9,5.01,0.00,22.7,22.1,00.0,31.6,24.5,03.7,0000.0,0002.56,0000.55,0000.26
2022-01-31 18:32:00,,0815.1,5.00,0.00,22.7,22.1,00.0,31.6,24.5,04.7,0000.0,0002.54,0000.54,0000.27
2022-01-31 18:33:00,,0815.2,4.99,0.00,22.7,22.1,00.0,31.6,24.4,04.7,0000.0,0002.44,0000.54,0000.27
2022-01-31 18:34:00,,0814.9,5.02,0.00,22.7,22.1,00.0,31.6,24.5,04.0,0000.0,0002.21,0000.53,0000.27
2022-01-31 18:35:00,,0814.9,5.00,0.00,22.7,22.1,00.0,31.6,24.5,03.5,0000.0,0002.11,0000.49,0000.26
2022-01-31 18:36:00,,0814.8,4.98,0.00,22.8,22.1,00.0,31.6,24.5,04.0,0000.0,0002.04,0000.54,0000.25
2022-01-31 18:37:00,,0814.8,5.01,0.00,22.8,22.1,00.0,31.6,24.5,04.1,0000.0,0002.05,0000.55,0000.25
2022-01-31 18:38:00,,0814.5,5.00,0.00,22.8,22.1,00.0,31.6,24.6,03.9,0000.0,0002.01,0000.54,0000.26
2022-01-31 18:39:00,,0814.4,5.01,0.00,22.8,22.1,00.0,31.7,24.6,03.7,0000.0,0002.09,0000.55,0000.26
2022-01-31 18:40:00,,0814.5,5.00,0.00,22.8,22.2,00.0,31.7,24.6,03.7,0000.0,0002.25,0000.55,0000.25
2022-01-31 18:41:00,,0814.5,5.01,0.00,22.8,22.2,00.0,31.7,24.6,03.7,0000.0,0002.30,0000.53,0000.24
2022-01-31 18:42:00,,0814.7,5.00,0.00,22.8,22.2,00.0,31.7,24.6,03.5,0000.0,0002.45,0000.52,0000.24
2022-01-31 18:43:00,,0814.3,4.99,0.00,22.8,22.2,00.0,31.7,24.6,03.8,0000.0,0002.45,0000.53,0000.24
2022-01-31 18:44:00,,0814.2,5.00,0.00,22.8,22.2,00.0,31.7,24.6,03.6,0000.0,0002.44,0000.53,0000.23
2022-01-31 18:45:00,,0814.1,5.01,0.00,22.8,22.2,00.0,31.8,24.6,03.8,0000.0,0002.44,0000.53,0000.23
2022-01-31 18:46:00,,0814.2,4.99,0.00,22.9,22.2,00.0,31.8,24.7,03.7,0000.0,0002.43,0000.52,0000.23
2022-01-31 18:47:00,,0814.1,4.99,0.00,22.9,22.2,00.0,31.8,24.7,03.6,0000.0,0002.36,0000.47,0000.23
2022-01-31 18:48:00,,0813.9,5.01,0.00,22.9,22.2,00.0,31.8,24.7,03.6,0000.0,0002.33,0000.45,0000.23
2022-01-31 18:49:00,,0813.8,5.00,0.00,22.9,22.3,00.0,31.8,24.7,03.7,0000.0,0002.66,0000.47,0000.22
2022-01-31 18:50:00,,0814.1,5.00,0.00,22.9,22.3,00.0,31.8,24.7,03.8,0000.0,0002.91,0000.48,0000.23
2022-01-31 18:51:00,,0813.9,4.99,0.00,22.9,22.2,00.0,31.8,24.7,03.5,0000.0,0002.34,0000.44,0000.22
2022-01-31 18:52:00,,0813.9,5.01,0.00,23.0,22.2,00.0,31.9,24.8,03.3,0000.0,0001.59,0000.44,0000.23
2022-01-31 18:53:00,,0814.0,4.99,0.00,23.0,22.2,00.0,31.9,24.8,03.5,0000.0,0001.33,0000.44,0000.23
2022-01-31 18:54:00,,0814.1,5.00,0.00,23.0,22.2,00.0,31.9,24.8,03.4,0000.0,0001.31,0000.43,0000.23
2022-01-31 18:55:00,,0814.0,5.01,0.00,23.0,22.2,00.0,31.9,24.8,03.3,0000.0,0001.33,0000.42,0000.23
2022-01-31 18:56:00,,0814.0,4.98,0.00,23.0,22.2,00.0,31.9,24.8,03.0,0000.0,0001.33,0000.43,0000.24
2022-01-31 18:57:00,,0813.9,5.02,0.00,23.0,22.2,00.0,31.9,24.8,03.2,0000.0,0001.35,0000.44,0000.24
2022-01-31 18:58:00,,0813.9,5.00,0.00,23.0,22.3,00.0,31.9,24.8,03.4,0000.0,0001.32,0000.44,0000.24
2022-01-31 18:59:00,,0814.1,5.00,0.00,23.0,22.3,00.0,31.9,24.8,03.8,0000.0,0001.32,0000.45,0000.24
